Weather History for KNCA - February, 2012

Change the Weather History Date:

Sunday, February 5, 2012

  Actual Average Record
Temperature  
Mean Temperature 52 °F -  
Max Temperature 61 °F 55 °F - (-1)
Min Temperature 42 °F 35 °F - (-1)
Degree Days  
Heating Degree Days 14    
Growing Degree Days 2 (Base 50)    
Moisture  
Dew Point 48 °F    
Average Humidity 90    
Maximum Humidity 100    
Minimum Humidity 75    
Precipitation  
Precipitation 0.17 in - - ()
Sea Level Pressure  
Sea Level Pressure 30.08 in    
Wind  
Wind Speed 7 mph (North)    
Max Wind Speed 15 mph    
Max Gust Speed 22 mph    
Visibility 8 miles    
Events Rain    
Averages and records for this station are not official NWS values.
T = Trace of Precipitation, MM = Missing Value Source: NWS Daily Summary

Daily Weather History Graph

Daily Weather History Graph

Search for Another Location

Airport or City:

Trip Planner

Search our weather history database for the weather conditions in past years. The results will help you decide how hot, cold, wet, or windy it might be!

Date:

Astronomy

Feb. 05, 2012 Rise Set
Actual Time 7:05 AM EST 5:42 PM EST
Civil Twilight 6:39 AM EST 6:08 PM EST
Nautical Twilight 6:09 AM EST 6:38 PM EST
Astronomical Twilight 5:39 AM EST 7:08 PM EST
Moon 3:42 PM EST (2/5) 5:11 AM EST (2/5)
Length of Visible Light 11h 29m
Length of Day
10h 37m
Waxing Gibbous, 94% of the Moon is Illuminated
Feb 5
Waxing Gibbous
Feb 7
Full
Feb 14
Last Quarter
Feb 21
New
Feb 29
First Quarter

Hourly Weather History & Observations

Time (EST) Temp. Windchill Dew Point Humidity Pressure Visibility Wind Dir Wind Speed Gust Speed Precip Events Conditions
12:56 AM 61.0 °F - 53.1 °F 75% 30.05 in 10.0 mi SW 10.4 mph - 0.00 in   Overcast
1:56 AM 61.0 °F - 53.1 °F 75% 30.04 in 10.0 mi West 5.8 mph - N/A   Overcast
2:56 AM 57.0 °F - 53.1 °F 87% 30.02 in 10.0 mi Calm Calm - N/A   Overcast
3:56 AM 57.0 °F - 53.1 °F 87% 30.01 in 10.0 mi Calm Calm - N/A   Overcast
4:56 AM 55.9 °F - 53.1 °F 90% 30.01 in 10.0 mi Calm Calm - N/A   Overcast
5:56 AM 54.0 °F - 52.0 °F 93% 29.99 in 10.0 mi Calm Calm - N/A   Overcast
6:56 AM 55.0 °F - 53.1 °F 93% 29.99 in 7.0 mi Calm Calm - 0.00 in Rain Light Rain
7:08 AM 55.4 °F - 53.6 °F 94% 29.98 in 7.0 mi Calm Calm - 0.01 in Rain Light Rain
7:56 AM 55.0 °F - 54.0 °F 96% 29.99 in 6.0 mi NNE 3.5 mph - 0.02 in Rain Light Rain
8:14 AM 55.4 °F - 53.6 °F 94% 30.00 in 1.8 mi North 6.9 mph - 0.09 in Rain Rain
8:32 AM 53.6 °F - 53.6 °F 100% 30.00 in 3.0 mi North 6.9 mph - 0.15 in Rain Light Rain
8:53 AM 53.6 °F - 53.6 °F 100% 30.00 in 4.0 mi Calm Calm - 0.15 in   Overcast
8:56 AM 54.0 °F - 53.1 °F 97% 30.01 in 4.0 mi Calm Calm - 0.15 in   Overcast
9:56 AM 55.0 °F - 54.0 °F 96% 30.02 in 6.0 mi North 4.6 mph - 0.00 in   Overcast
10:56 AM 55.9 °F - 54.0 °F 93% 30.03 in 5.0 mi North 8.1 mph - 0.00 in Rain Light Rain
11:42 AM 53.6 °F - 53.6 °F 100% 30.02 in 10.0 mi North 9.2 mph - 0.00 in   Overcast
11:56 AM 53.1 °F - 52.0 °F 96% 30.03 in 10.0 mi NNE 12.7 mph - 0.00 in   Overcast
12:29 PM 51.8 °F - 50.0 °F 94% 30.02 in 10.0 mi North 11.5 mph - N/A   Overcast
12:56 PM 51.1 °F - 48.9 °F 92% 30.03 in 10.0 mi NNE 9.2 mph - N/A   Overcast
1:56 PM 50.0 °F - 48.0 °F 93% 30.03 in 10.0 mi North 8.1 mph - N/A   Overcast
2:56 PM 48.9 °F - 46.9 °F 93% 30.04 in 10.0 mi North 11.5 mph - N/A   Overcast
3:56 PM 48.0 °F - 46.0 °F 93% 30.09 in 6.0 mi North 12.7 mph - N/A   Overcast
4:56 PM 46.0 °F 39.6 °F 44.1 °F 93% 30.11 in 7.0 mi North 15.0 mph 21.9 mph N/A   Overcast
5:56 PM 45.0 °F 38.9 °F 43.0 °F 93% 30.14 in 10.0 mi North 12.7 mph - N/A   Overcast
6:56 PM 45.0 °F 38.9 °F 41.0 °F 86% 30.18 in 10.0 mi North 12.7 mph - N/A   Overcast
7:03 PM 44.6 °F 38.8 °F 41.0 °F 87% 30.17 in 10.0 mi NNE 11.5 mph - N/A   Overcast
7:11 PM 44.6 °F 38.8 °F 42.8 °F 93% 30.18 in 10.0 mi North 11.5 mph - N/A   Overcast
7:56 PM 44.1 °F 37.7 °F 39.9 °F 85% 30.20 in 10.0 mi NNE 12.7 mph - N/A   Overcast
8:46 PM 44.6 °F 38.4 °F 39.2 °F 81% 30.21 in 10.0 mi NNE 12.7 mph - N/A   Overcast
8:56 PM 44.1 °F 37.7 °F 39.0 °F 82% 30.22 in 10.0 mi NNE 12.7 mph - N/A   Overcast
9:56 PM 44.1 °F 39.5 °F 39.0 °F 82% 30.23 in 10.0 mi NNE 8.1 mph - N/A   Overcast
10:56 PM 44.1 °F 40.1 °F 39.0 °F 82% 30.23 in 10.0 mi NE 6.9 mph - N/A   Overcast
11:44 PM 42.8 °F 36.6 °F 35.6 °F 76% 30.23 in 10.0 mi NNE 11.5 mph - N/A   Mostly Cloudy
11:56 PM 42.1 °F 36.6 °F 36.0 °F 79% 30.24 in 10.0 mi NNE 9.2 mph - N/A   Mostly Cloudy